Burlington, NC

7:25 PM EDT on April 23, 2018 (GMT -0400)
Burlington-Alamance Regional

Weather History for KBUY - August, 2014

Change the Weather History Date:

Sunday, August 10, 2014

  Actual Average Record
Temperature  
Mean Temperature 72 °F -  
Max Temperature 78 °F 88 °F 102 °F (2007)
Min Temperature 66 °F 67 °F 55 °F (1975)
Cooling Degree Days 6    
Growing Degree Days 22 (Base 50)    
Moisture  
Dew Point 65 °F    
Average Humidity 85    
Maximum Humidity 94    
Minimum Humidity 66    
Precipitation  
Precipitation 0.03 in - - ()
Sea Level Pressure  
Sea Level Pressure 30.09 in    
Wind  
Wind Speed 5 mph (ENE)    
Max Wind Speed 9 mph    
Max Gust Speed -    
Visibility 8 miles    
Events Rain    
Averages and records for this station are not official NWS values.
T = Trace of Precipitation, MM = Missing Value Source: NWS Daily Summary

Daily Weather History Graph

Daily Weather History Graph

Search for Another Location

Airport or City:

Astronomy

Aug. 10, 2014 Rise Set
Actual Time 6:32 AM EDT 8:13 PM EDT
Civil Twilight 6:04 AM EDT 8:41 PM EDT
Nautical Twilight 5:31 AM EDT 9:14 PM EDT
Astronomical Twilight 4:56 AM EDT 9:49 PM EDT
Moon 8:01 PM EDT (8/10) 6:20 AM EDT (8/10)
Length of Visible Light 14h 36m
Length of Day
13h 41m
Full, 100% of the Moon is Illuminated
Aug 10
Full
Aug 10
Full
Aug 17
Last Quarter
Aug 25
New
Sep 2
First Quarter

Hourly Weather History & Observations

Time (EDT) Temp. Dew Point Humidity Pressure Visibility Wind Dir Wind Speed Gust Speed Precip Events Conditions
12:54 AM 66.9 °F 64.0 °F 90% 30.09 in 10.0 mi ENE 4.6 mph - N/A   Overcast
1:54 AM 66.9 °F 64.0 °F 90% 30.09 in 10.0 mi ENE 3.5 mph - N/A   Overcast
2:12 AM 66.9 °F 64.0 °F 90% 30.10 in 10.0 mi ENE 4.6 mph - N/A   Overcast
2:40 AM 66.9 °F 64.0 °F 90% 30.09 in 6.0 mi East 3.5 mph - 0.00 in   Overcast
2:54 AM 66.9 °F 64.0 °F 90% 30.07 in 4.0 mi East 3.5 mph - 0.00 in Rain Light Rain
3:54 AM 66.0 °F 64.0 °F 93% 30.08 in 6.0 mi NE 4.6 mph - 0.02 in   Overcast
4:27 AM 66.0 °F 64.0 °F 93% 30.08 in 7.0 mi NE 4.6 mph - N/A   Overcast
5:20 AM 66.0 °F 64.0 °F 93% 30.08 in 10.0 mi NE 5.8 mph - N/A   Overcast
5:54 AM 66.0 °F 64.0 °F 93% 30.07 in 8.0 mi ENE 5.8 mph - N/A   Overcast
7:54 AM 66.9 °F 64.0 °F 90% 30.10 in 6.0 mi ENE 4.6 mph - N/A   Overcast
8:34 AM 66.9 °F 64.0 °F 90% 30.12 in 2.0 mi ENE 5.8 mph - N/A   Overcast
8:52 AM 66.2 °F 64.4 °F 94% 30.12 in 4.0 mi ENE 4.6 mph - N/A   Overcast
8:54 AM 66.9 °F 64.0 °F 90% 30.10 in 5.0 mi ENE 5.8 mph - N/A   Overcast
9:54 AM 68.0 °F 64.0 °F 87% 30.11 in 10.0 mi ENE 5.8 mph - N/A   Overcast
10:54 AM 68.0 °F 64.9 °F 90% 30.12 in 6.0 mi ENE 5.8 mph - N/A   Overcast
11:02 AM 68.0 °F 64.9 °F 90% 30.14 in 3.0 mi NE 4.6 mph - N/A   Overcast
11:16 AM 68.0 °F 64.9 °F 90% 30.13 in 2.5 mi ENE 4.6 mph - 0.01 in Rain Light Rain
11:35 AM 69.1 °F 66.0 °F 90% 30.14 in 3.0 mi NE 6.9 mph - 0.01 in   Overcast
11:42 AM 69.1 °F 66.0 °F 90% 30.14 in 4.0 mi NE 5.8 mph - 0.01 in   Overcast
11:54 AM 69.1 °F 66.0 °F 90% 30.12 in 6.0 mi East 8.1 mph - 0.01 in   Overcast
12:02 PM 70.0 °F 66.0 °F 87% 30.13 in 7.0 mi ENE 4.6 mph - N/A   Overcast
12:52 PM 71.6 °F 66.2 °F 83% 30.12 in 10.0 mi East 8.1 mph - N/A   Overcast
12:54 PM 72.0 °F 66.0 °F 81% 30.11 in 10.0 mi ENE 9.2 mph - N/A   Overcast
1:19 PM 73.0 °F 66.0 °F 79% 30.12 in 10.0 mi East 6.9 mph - N/A   Overcast
1:54 PM 73.0 °F 66.0 °F 79% 30.10 in 10.0 mi Variable 5.8 mph - N/A   Overcast
2:54 PM 75.0 °F 66.9 °F 76% 30.09 in 10.0 mi ENE 6.9 mph - N/A   Overcast
3:54 PM 75.9 °F 66.9 °F 74% 30.07 in 10.0 mi East 5.8 mph - N/A   Overcast
4:42 PM 77.0 °F 66.0 °F 69% 30.07 in 10.0 mi East 6.9 mph - N/A   Mostly Cloudy
4:54 PM 77.0 °F 64.9 °F 66% 30.05 in 10.0 mi East 8.1 mph - N/A   Mostly Cloudy
5:54 PM 77.0 °F 66.0 °F 69% 30.05 in 10.0 mi East 5.8 mph - N/A   Overcast
6:54 PM 75.0 °F 66.0 °F 73% 30.06 in 10.0 mi NE 4.6 mph - N/A   Overcast
7:54 PM 73.9 °F 66.9 °F 79% 30.06 in 10.0 mi NNE 4.6 mph - N/A   Overcast
8:54 PM 73.0 °F 66.9 °F 81% 30.06 in 10.0 mi NNE 3.5 mph - N/A   Overcast
9:54 PM 73.9 °F 66.0 °F 76% 30.07 in 10.0 mi East 8.1 mph - N/A   Overcast
10:54 PM 73.0 °F 66.0 °F 79% 30.07 in 10.0 mi ENE 4.6 mph - N/A   Overcast
11:54 PM 73.0 °F 66.9 °F 81% 30.08 in 10.0 mi East 3.5 mph - N/A   Overcast